Location: Poughquag
(41.6090°N, 73.6820°W)
Time: 12:36:36
(UTC-04:00)

Vanguard 2 Rocket - Pass Details

Date: 05 June 2020
Orbit: 556 x 3324 km, 32.9° (Epoch: 06 July)

Event Time Altitude Azimuth Distance (km) Brightness Sun altitude
Rises 12:58:37 0° 207° (SSW) 2,903 9.7 71.0°
Reaches altitude 10° 13:01:24 10° 184° (S) 2,201 9.3 71.0°
Maximum altitude 13:04:35 17° 145° (SE) 2,063 9.2 70.9°
Drops below altitude 10° 13:08:39 10° 107° (ESE) 2,937 9.7 70.8°
Sets 13:13:18 0° 90° (E) 4,447 10.4 70.6°
